DW4246 Weather Reports


time (UTC)temp
F
wind
direction
speed
knots
gust
knots
rain 1hr
in
rain 24hr
in
rain mn
in
humidity
%
barometer
mb
20260506104541 53 313 0.9 1.7 0.00 0.00 0.00 89 1017.8
20260506103040 53 13 0.0 1.7 0.00 0.00 0.00 89 1017.7
20260506101541 53 304 0.9 3.5 0.00 0.00 0.00 89 1017.7
20260506100041 53 340 0.9 2.6 0.00 0.00 0.00 89 1017.7
20260506094548 54 350 0.9 2.6 0.00 0.00 0.00 88 1017.6
20260506093035 54 309 0.9 2.6 0.00 0.00 0.00 87 1017.5
20260506091534 55 316 1.7 5.2 0.00 0.00 0.00 86 1017.2
20260506090033 55 281 2.6 7.0 0.00 0.00 0.00 86 1017.1
20260506084530 55 300 0.9 5.2 0.00 0.00 0.00 85 1017.1
20260506083030 55 319 0.9 7.0 0.00 0.00 0.00 87 1017.2
20260506081529 55 320 1.7 4.3 0.00 0.00 0.00 88 1017.9
20260506073023 55 344 0.0 0.0 0.00 0.00 0.00 87 1017.5
20260506071528 55 314 0.0 0.0 0.00 0.00 0.00 87 1017.3
20260506061517 57 321 0.0 1.7 0.00 0.00 0.00 85 1016.4
20260506044507 59 310 1.7 4.3 0.00 0.00 0.00 79 1016.0
20260506043006 60 304 1.7 3.5 0.00 0.00 0.00 78 1015.7
20260506041503 60 304 1.7 3.5 0.00 0.00 0.00 76 1015.5
20260506040001 61 279 0.9 3.5 0.00 0.00 0.00 75 1015.4
20260506034614 61 302 0.9 3.5 0.00 0.00 0.00 73 1015.1
20260506033059 62 294 0.0 5.2 0.00 0.00 0.00 72 1014.9
20260506031605 62 281 0.0 4.3 0.00 0.00 0.00 71 1014.7
20260506024557 63 273 0.9 4.3 0.00 0.00 0.00 69 1014.4
20260506023058 64 278 1.7 5.2 0.00 0.00 0.00 68 1014.3
20260506021559 64 294 2.6 6.1 0.00 0.00 0.00 67 1014.2
20260506020101 64 292 1.7 7.0 0.00 0.00 0.00 66 1014.1
20260506014555 65 304 3.5 7.8 0.00 0.00 0.00 65 1014.1
20260506013054 65 253 1.7 8.7 0.00 0.00 0.00 66 1014.1
20260506011606 66 326 2.6 7.8 0.00 0.00 0.00 63 1014.1
20260506010057 65 286 2.6 8.7 0.00 0.00 0.00 64 1014.1
20260506004552 67 327 2.6 11.3 0.00 0.00 0.00 63 1014.2
20260506003053 67 338 3.5 8.7 0.00 0.00 0.00 63 1014.2
20260506001552 67 312 3.5 8.7 0.00 0.00 0.00 62 1014.1
20260506000050 67 306 1.7 7.8 0.00 0.00 0.00 62 1014.1
20260505234557 66 355 5.2 11.3 0.00 0.00 0.00 65 1014.0
20260505233102 65 292 6.1 10.4 0.00 0.00 0.00 65 1014.0
20260505231553 65 252 4.3 8.7 0.00 0.00 0.00 67 1014.0
20260505230048 66 270 3.5 9.6 0.00 0.00 0.00 64 1014.1
20260505224548 67 238 3.5 10.4 0.00 0.00 0.00 63 1014.1
20260505223052 66 201 4.3 9.6 0.00 0.00 0.00 64 1014.2
20260505221549 65 231 2.6 12.2 0.00 0.00 0.00 64 1014.2
20260505220045 67 332 5.2 11.3 0.00 0.00 0.00 63 1014.3
20260505214550 66 281 3.5 9.6 0.00 0.00 0.00 63 1014.4
20260505213043 67 175 2.6 12.2 0.00 0.00 0.00 63 1014.4
20260505211543 65 290 3.5 9.6 0.00 0.00 0.00 63 1014.5
20260505210042 65 289 1.7 8.7 0.00 0.00 0.00 62 1014.5
20260505204540 64 242 5.2 10.4 0.00 0.00 0.00 66 1014.7
20260505203037 64 256 4.3 10.4 0.00 0.00 0.00 66 1014.7
20260505201536 63 306 4.3 9.6 0.00 0.00 0.00 67 1014.7
20260505200041 63 306 3.5 13.0 0.00 0.00 0.00 68 1014.9
20260505194533 63 317 3.5 9.6 0.00 0.00 0.00 68 1015.0
20260505193031 62 304 4.3 9.6 0.00 0.00 0.00 68 1015.0
20260505191531 62 302 2.6 9.6 0.00 0.00 0.00 70 1015.1
20260505190036 62 306 6.1 10.4 0.00 0.00 0.00 69 1015.1
20260505184527 61 323 4.3 11.3 0.00 0.00 0.00 70 1014.9
20260505183029 61 279 2.6 10.4 0.00 0.00 0.00 72 1015.0
20260505181525 61 327 4.3 11.3 0.00 0.00 0.00 74 1014.9
20260505180023 60 303 4.3 10.4 0.00 0.00 0.00 73 1014.8
20260505174519 58 292 3.5 10.4 0.00 0.00 0.00 76 1014.7
20260505173017 59 278 3.5 8.7 0.00 0.00 0.00 77 1014.6
20260505171518 57 293 4.3 10.4 0.00 0.00 0.00 78 1014.5
20260505170016 57 313 3.5 7.8 0.00 0.00 0.00 79 1014.7
20260505164511 57 312 3.5 7.8 0.00 0.00 0.00 81 1014.5
20260505163011 57 306 2.6 7.8 0.00 0.00 0.00 82 1014.5
20260505161510 56 304 0.9 7.0 0.00 0.00 0.00 82 1014.4
20260505153004 55 355 0.0 5.2 0.00 0.00 0.00 85 1014.3
20260505151504 54 319 0.0 3.5 0.00 0.00 0.00 86 1014.2
20260505130106 53 296 1.7 7.8 0.00 0.00 0.00 88 1013.4
20260505124552 53 311 0.9 6.1 0.00 0.00 0.00 88 1013.3
20260505123046 53 311 1.7 5.2 0.00 0.00 0.00 88 1013.2
20260505121547 52 327 1.7 6.1 0.00 0.00 0.00 88 1013.2
20260505120045 53 355 1.7 4.3 0.00 0.00 0.00 88 1013.2
20260505114541 52 305 2.6 7.8 0.00 0.00 0.00 88 1013.2
20260505113049 52 290 4.3 9.6 0.00 0.00 0.00 88 1013.3
20260505111541 52 308 3.5 7.0 0.00 0.00 0.00 88 1013.3